Weather Roundup
Issued by NWS Chicago, IL

Home | Current Version | Previous Version | Text Only | Print | Product List | Glossary On
Versions: 1 2 3 4 5 6 7 8 9 10 11 12 13 14 15 16 17 18 19 20 21 22 23 24 25 26 27 28 29 30 31 32 33 34 35 36 37 38 39 40 41 42 43 44 45 46 47 48 49 50
000
NZUS59 KLOT 250310
HRRLOT

CHICAGO AREA WEATHER ROUNDUP
NATIONAL WEATHER SERVICE CHICAGO/ROMEOVILLE IL
1000 PM CDT THU JUL 24 2014

NOTE: "FAIR" INDICATES FEW OR NO CLOUDS BELOW 12,000 FEET WITH NO
SIGNIFICANT WEATHER AND/OR OBSTRUCTIONS TO VISIBILITY.

* THESE STATIONS ARE NOT UNDER NWS QUALITY CONTROL. THEY ALSO MAY NOT
  REPORT WEATHER SUCH AS PRECIPITATION OR FOG.

ILZ005-006-012>014-019>023-250400-
NORTHEAST ILLINOIS

CITY           SKY/WX    TMP DP  RH WIND       PRES   REMARKS
OHARE          MOCLDY    64  43  46 SE10      30.06S
MIDWAY         MOCLDY    67  50  54 SE7       30.07F
AURORA         MOCLDY    61  49  64 SE7       30.06F
LANSING*       PTCLDY    60  51  71 SE5       30.08F
JOLIET*        PTCLDY    61  48  62 SE6       30.08S
WAUKEGAN       MOCLDY    57  51  80 SE6       30.05F
DUPAGE AIRPORT MOCLDY    64  46  52 E6        30.06S
WHEELING         N/A     64  47  53 SE5       30.07F
KANKAKEE*      PTCLDY    60  54  80 CALM      30.08S
MORRIS*        MOCLDY    61  54  77 SE3       30.06S
LEWIS AIRPORT* MOCLDY    61  48  62 SE7       30.07S
NORTHERLY IS   NOT AVBL
$$

WIZ051-052-058>065-066-070>072-250400-
SOUTHEAST WISCONSIN

CITY           SKY/WX    TMP DP  RH WIND       PRES   REMARKS
MILWAUKEE      MOCLDY    62  45  53 S9        30.04F
KENOSHA*       MOCLDY    62  45  53 S7        30.06F
RACINE*        PTCLDY    62  48  60 S6        30.07F
BURLINGTON     MOCLDY    57  47  69 CALM      30.05F
WAUKESHA       MOCLDY    59  43  55 S6        30.06S
WEST BEND      MOCLDY    61  41  48 SW5       30.04S
$$

INZ001>003-010>013-019-020-250400-
NORTHWEST INDIANA

CITY           SKY/WX    TMP DP  RH WIND       PRES   REMARKS
GARY*          PTCLDY    60  54  78 SE3       30.08F
MICHIGAN CITY* NOT AVBL
RENSSELAER*    NOT AVBL
VALPARAISO       N/A     52  50  93 E5        30.09F
$$

LMZ740>746-250400-
SOUTHERN LAKE MICHIGAN

STATION/POSITION TIME  SKY/WX   TEMP WIND        PRES    VSBY
                                AIR  DIR/SP/G
                 (UTC)          (F)  (DEG/KT/KT) (MB)    (MI)
HARRISON CRIB    0300            65  130/  9/ 10   N/A
BURNHAM HARBOR   NOT AVBL
CALUMET HARBOR   0300            65  100/  5/  7 1017.0F
BURNS HARBOR     NOT AVBL
MICHIGAN CITY    0300            63   90/  4/  6   N/A
$$

ABBREVIATIONS USED IN REMARKS
   TC - TEMPERATURE IN CELSIUS
  WCI - WIND CHILL INDEX
   HX - HEAT INDEX
  VSB - VISIBILITY
$$


USA.gov is the U.S. government's official web portal to all federal, state and local government web resources and services.